CES5739 ZPPP-ZGGG

Flight info

Callsign CES5739
Flight time 1h 46m
Altitude 31100
Route K0872S1250 LXI9X LXI A599 GYA GYA1
Aircraft A346/H-SDE2E3FGHIJ3J4J5M1RWXY/LB1D1

Departure

Time 2026-05-07 10:51
Airport Kunming Changshui International Airport (ZPPP)

Arrival

Time 2026-05-07 12:38
Airport Guangzhou Baiyun International Airport (ZGGG)
Time Latitude Longitude Altitude Speed Heading
2026-05-07 10:21 25.10337 102.92408 6929 ft 0 kts 219°
2026-05-07 10:39 25.10346 102.92417 6932 ft 4 kts 224°
2026-05-07 10:39 25.10363 102.92438 6923 ft 4 kts 240°
2026-05-07 10:39 25.10372 102.92463 6929 ft 4 kts 262°
2026-05-07 10:39 25.10371 102.92490 6929 ft 4 kts 285°
2026-05-07 10:40 25.10361 102.92515 6929 ft 4 kts 303°
2026-05-07 10:40 25.10345 102.92539 6928 ft 4 kts 310°
2026-05-07 10:40 25.10329 102.92559 6928 ft 1 kts 307°
2026-05-07 10:40 25.10329 102.92560 6928 ft 0 kts 307°
2026-05-07 10:48 25.10427 102.92419 6927 ft 100 kts 308°
2026-05-07 10:48 25.10541 102.91761 6926 ft 80 kts 217°
2026-05-07 10:49 25.10172 102.91851 6920 ft 43 kts 84°
2026-05-07 10:49 25.10307 102.91889 6926 ft 17 kts 343°
2026-05-07 10:49 25.10418 102.91877 6928 ft 14 kts 27°
2026-05-07 10:49 25.10441 102.91908 6929 ft 2 kts 48°
2026-05-07 10:50 25.10453 102.91919 6930 ft 3 kts 34°
2026-05-07 10:50 25.10475 102.91931 6922 ft 5 kts 25°
2026-05-07 10:50 25.10613 102.92030 6926 ft 63 kts 39°
2026-05-07 10:51 25.12335 102.93521 7057 ft 211 kts 36°
2026-05-07 10:51 25.13580 102.94519 7868 ft 228 kts 36°
2026-05-07 10:51 25.14976 102.95604 8679 ft 245 kts 37°
2026-05-07 10:51 25.16439 102.96739 9525 ft 268 kts 38°
2026-05-07 10:52 25.17971 102.97923 10466 ft 269 kts 37°
2026-05-07 10:52 25.19513 102.99110 11277 ft 271 kts 36°
2026-05-07 10:52 25.21073 103.00308 12067 ft 275 kts 34°
2026-05-07 10:52 25.22663 103.01525 12804 ft 280 kts 33°
2026-05-07 10:53 25.24291 103.02764 13517 ft 285 kts 33°
2026-05-07 10:53 25.25937 103.04011 14216 ft 289 kts 32°
2026-05-07 10:53 25.27582 103.05345 14755 ft 300 kts 44°
2026-05-07 10:53 25.28685 103.07354 15106 ft 317 kts 76°
2026-05-07 10:54 25.28762 103.09814 15428 ft 328 kts 107°
2026-05-07 10:54 25.27735 103.12071 15782 ft 332 kts 137°
2026-05-07 10:54 25.25888 103.13480 16238 ft 326 kts 166°
2026-05-07 10:54 25.23689 103.13739 16847 ft 316 kts 195°
2026-05-07 10:55 25.21626 103.12965 17514 ft 314 kts 205°
2026-05-07 10:55 25.19495 103.12325 18381 ft 322 kts 195°
2026-05-07 10:55 25.17271 103.11928 19015 ft 326 kts 194°
2026-05-07 10:55 25.15022 103.11524 19658 ft 329 kts 195°
2026-05-07 10:56 25.12759 103.11077 20263 ft 331 kts 196°
2026-05-07 10:56 25.10492 103.10597 20941 ft 332 kts 197°
2026-05-07 10:56 25.08216 103.10090 21524 ft 335 kts 197°
2026-05-07 10:56 25.05922 103.09570 22096 ft 338 kts 197°
2026-05-07 10:57 25.03603 103.09037 22667 ft 341 kts 197°
2026-05-07 10:57 25.01273 103.08498 23248 ft 343 kts 197°
2026-05-07 10:57 24.98930 103.07954 23810 ft 346 kts 197°
2026-05-07 10:57 24.96563 103.07402 24268 ft 349 kts 197°
2026-05-07 10:58 24.94177 103.06845 24689 ft 352 kts 197°
2026-05-07 10:58 24.91776 103.06285 25092 ft 354 kts 197°
2026-05-07 10:58 24.89355 103.05721 25495 ft 357 kts 197°
2026-05-07 10:58 24.86913 103.05152 25904 ft 360 kts 197°
2026-05-07 10:59 24.84430 103.04660 26310 ft 368 kts 188°
2026-05-07 10:59 24.81868 103.04944 26659 ft 385 kts 169°
2026-05-07 10:59 24.79402 103.06217 27118 ft 400 kts 149°
2026-05-07 10:59 24.77396 103.08400 27543 ft 414 kts 128°
2026-05-07 11:00 24.76102 103.11282 27978 ft 424 kts 114°
2026-05-07 11:00 24.75068 103.14334 28457 ft 427 kts 113°
2026-05-07 11:00 24.74039 103.17416 28922 ft 430 kts 113°
2026-05-07 11:00 24.72994 103.20515 29382 ft 433 kts 114°
2026-05-07 11:01 24.71928 103.23630 29869 ft 436 kts 114°
2026-05-07 11:01 24.70848 103.26757 30279 ft 439 kts 114°
2026-05-07 11:01 24.69754 103.29906 30638 ft 442 kts 114°
2026-05-07 11:01 24.68640 103.33099 30799 ft 451 kts 114°
2026-05-07 11:02 24.67497 103.36369 30848 ft 464 kts 114°
2026-05-07 11:02 24.66321 103.39730 30852 ft 477 kts 114°
2026-05-07 11:02 24.65113 103.43179 30849 ft 489 kts 113°
2026-05-07 11:02 24.63872 103.46722 30849 ft 502 kts 113°
2026-05-07 11:03 24.62603 103.50344 30861 ft 514 kts 113°
2026-05-07 11:03 24.61301 103.54055 30861 ft 525 kts 113°
2026-05-07 11:03 24.58615 103.61701 30862 ft 545 kts 113°
2026-05-07 11:04 24.55862 103.69533 30866 ft 551 kts 112°
2026-05-07 11:04 24.53501 103.77577 30863 ft 554 kts 107°
2026-05-07 11:05 24.51714 103.85771 30870 ft 554 kts 105°
2026-05-07 11:05 24.49974 103.94000 30867 ft 551 kts 104°
2026-05-07 11:06 24.48231 104.02206 30867 ft 551 kts 104°
2026-05-07 11:06 24.46479 104.10406 30847 ft 551 kts 105°
2026-05-07 11:07 24.44721 104.18597 30864 ft 551 kts 105°
2026-05-07 11:07 24.42956 104.26792 30853 ft 551 kts 105°
2026-05-07 11:08 24.41182 104.35002 30854 ft 551 kts 105°
2026-05-07 11:08 24.39409 104.43197 30843 ft 551 kts 105°
2026-05-07 11:09 24.37641 104.51338 30835 ft 551 kts 105°
2026-05-07 11:09 24.35857 104.59529 30836 ft 551 kts 105°
2026-05-07 11:10 24.34072 104.67711 30822 ft 551 kts 105°
2026-05-07 11:10 24.32570 104.74568 30827 ft 551 kts 105°
2026-05-07 11:11 24.30785 104.82705 30828 ft 551 kts 105°
2026-05-07 11:11 24.28681 104.92267 30828 ft 551 kts 105°
2026-05-07 11:12 24.26874 105.00440 30820 ft 552 kts 104°
2026-05-07 11:12 24.25066 105.08626 30819 ft 552 kts 105°
2026-05-07 11:13 24.23559 105.15428 30828 ft 552 kts 105°
2026-05-07 11:13 24.21404 105.24979 30824 ft 552 kts 105°
2026-05-07 11:14 24.19765 105.31745 30822 ft 552 kts 106°
2026-05-07 11:14 24.17770 105.39895 30818 ft 553 kts 106°
2026-05-07 11:15 24.15458 105.49380 30816 ft 553 kts 106°
2026-05-07 11:15 24.13808 105.56153 30811 ft 552 kts 106°
2026-05-07 11:16 24.11820 105.64306 30800 ft 553 kts 106°
2026-05-07 11:16 24.09919 105.72483 30800 ft 553 kts 103°
2026-05-07 11:17 24.08279 105.80729 30787 ft 554 kts 103°
2026-05-07 11:17 24.06650 105.88977 30789 ft 553 kts 103°
2026-05-07 11:18 24.05013 105.97233 30789 ft 554 kts 103°
2026-05-07 11:18 24.03380 106.05424 30780 ft 553 kts 103°
2026-05-07 11:19 24.01733 106.13657 30773 ft 553 kts 103°
2026-05-07 11:19 24.00080 106.21891 30768 ft 553 kts 103°
2026-05-07 11:20 23.98424 106.30118 30765 ft 553 kts 103°
2026-05-07 11:20 23.96761 106.38347 30759 ft 553 kts 103°
2026-05-07 11:21 23.95097 106.46570 30762 ft 553 kts 103°
2026-05-07 11:21 23.93432 106.54786 30757 ft 552 kts 103°
2026-05-07 11:22 23.92180 106.63090 30754 ft 553 kts 97°
2026-05-07 11:22 23.91556 106.71496 30754 ft 553 kts 94°
2026-05-07 11:23 23.91018 106.79895 30757 ft 553 kts 94°
2026-05-07 11:23 23.90472 106.88250 30755 ft 553 kts 94°
2026-05-07 11:24 23.89910 106.96651 30749 ft 553 kts 94°
2026-05-07 11:24 23.89340 107.05043 30752 ft 553 kts 94°
2026-05-07 11:25 23.88763 107.13443 30747 ft 554 kts 94°
2026-05-07 11:25 23.88181 107.21857 30750 ft 554 kts 94°
2026-05-07 11:26 23.87596 107.30274 30754 ft 554 kts 94°
2026-05-07 11:26 23.87007 107.38678 30754 ft 554 kts 94°
2026-05-07 11:27 23.86411 107.47091 30760 ft 554 kts 94°
2026-05-07 11:27 23.85816 107.55453 30755 ft 554 kts 94°
2026-05-07 11:28 23.85212 107.63862 30752 ft 555 kts 94°
2026-05-07 11:28 23.84601 107.72285 30756 ft 554 kts 94°
2026-05-07 11:29 23.83986 107.80692 30754 ft 555 kts 94°
2026-05-07 11:29 23.83421 107.89108 30756 ft 555 kts 93°
2026-05-07 11:30 23.83018 107.97545 30756 ft 555 kts 92°
2026-05-07 11:30 23.82613 108.05960 30767 ft 554 kts 92°
2026-05-07 11:31 23.82182 108.14387 30751 ft 555 kts 93°
2026-05-07 11:31 23.81727 108.22819 30753 ft 555 kts 93°
2026-05-07 11:32 23.81019 108.35397 30752 ft 555 kts 93°
2026-05-07 11:33 23.80539 108.43828 30750 ft 554 kts 93°
2026-05-07 11:33 23.80052 108.52288 30973 ft 557 kts 93°
2026-05-07 11:34 23.79566 108.60715 30996 ft 555 kts 93°
2026-05-07 11:34 23.79076 108.69131 30997 ft 554 kts 93°
2026-05-07 11:35 23.78580 108.77543 30996 ft 554 kts 93°
2026-05-07 11:35 23.78079 108.85946 30988 ft 553 kts 93°
2026-05-07 11:36 23.77579 108.94291 30989 ft 553 kts 93°
2026-05-07 11:36 23.77071 109.02697 30984 ft 553 kts 93°
2026-05-07 11:37 23.76525 109.11097 30982 ft 553 kts 95°
2026-05-07 11:37 23.75388 109.19435 30984 ft 555 kts 101°
2026-05-07 11:38 23.73743 109.27680 30981 ft 555 kts 102°
2026-05-07 11:38 23.72062 109.35912 30984 ft 555 kts 102°
2026-05-07 11:39 23.70392 109.44136 30989 ft 555 kts 102°
2026-05-07 11:39 23.68722 109.52376 30987 ft 555 kts 102°
2026-05-07 11:40 23.67047 109.60615 30990 ft 555 kts 102°
2026-05-07 11:40 23.65367 109.68802 31000 ft 555 kts 102°
2026-05-07 11:41 23.63665 109.77041 31000 ft 555 kts 102°
2026-05-07 11:41 23.61963 109.85269 31008 ft 555 kts 102°
2026-05-07 11:42 23.60256 109.93496 31016 ft 555 kts 103°
2026-05-07 11:42 23.58543 110.01719 31008 ft 555 kts 103°
2026-05-07 11:43 23.56826 110.09949 31009 ft 555 kts 103°
2026-05-07 11:43 23.55108 110.18160 31009 ft 553 kts 103°
2026-05-07 11:44 23.53401 110.26297 31010 ft 552 kts 103°
2026-05-07 11:44 23.51682 110.34465 31003 ft 552 kts 103°
2026-05-07 11:45 23.49995 110.42633 31004 ft 552 kts 102°
2026-05-07 11:45 23.48340 110.50820 31007 ft 551 kts 102°
2026-05-07 11:46 23.46681 110.58984 31008 ft 551 kts 102°
2026-05-07 11:46 23.45014 110.67136 31011 ft 551 kts 102°
2026-05-07 11:47 23.43334 110.75288 31008 ft 551 kts 103°
2026-05-07 11:47 23.41615 110.83429 31009 ft 550 kts 103°
2026-05-07 11:48 23.39894 110.91549 31016 ft 549 kts 103°
2026-05-07 11:48 23.38174 110.99669 31014 ft 549 kts 103°
2026-05-07 11:49 23.36464 111.07725 31009 ft 544 kts 103°
2026-05-07 11:49 23.34768 111.15697 31010 ft 543 kts 102°
2026-05-07 11:50 23.33118 111.23731 31007 ft 542 kts 102°
2026-05-07 11:50 23.31487 111.31754 31008 ft 542 kts 102°
2026-05-07 11:51 23.29845 111.39775 31006 ft 542 kts 102°
2026-05-07 11:51 23.28195 111.47798 31005 ft 542 kts 102°
2026-05-07 11:52 23.26545 111.55762 31005 ft 542 kts 102°
2026-05-07 11:52 23.24848 111.63779 31005 ft 542 kts 102°
2026-05-07 11:53 23.23148 111.71782 31003 ft 542 kts 102°
2026-05-07 11:53 23.21446 111.79786 31014 ft 542 kts 102°
2026-05-07 11:54 23.19754 111.87805 30900 ft 541 kts 102°
2026-05-07 11:54 23.18932 111.91762 30215 ft 529 kts 102°
2026-05-07 11:54 23.18144 111.95553 29572 ft 513 kts 102°
2026-05-07 11:54 23.17360 111.99333 28921 ft 511 kts 102°
2026-05-07 11:55 23.16579 112.03101 28281 ft 512 kts 102°
2026-05-07 11:55 23.15791 112.06885 27653 ft 513 kts 102°
2026-05-07 11:55 23.15007 112.10640 27029 ft 501 kts 102°
2026-05-07 11:55 23.14247 112.14303 27759 ft 489 kts 103°
2026-05-07 11:56 23.13504 112.17865 27122 ft 477 kts 103°
2026-05-07 11:56 23.12769 112.21348 26491 ft 467 kts 103°
2026-05-07 11:56 23.12039 112.24804 25850 ft 459 kts 103°
2026-05-07 11:56 23.11325 112.28181 25211 ft 454 kts 103°
2026-05-07 11:57 23.10614 112.31551 24573 ft 448 kts 103°
2026-05-07 11:57 23.09920 112.34833 23947 ft 444 kts 103°
2026-05-07 11:57 23.09232 112.38089 23316 ft 441 kts 103°
2026-05-07 11:57 23.08545 112.41337 22794 ft 441 kts 103°
2026-05-07 11:58 23.07859 112.44579 22161 ft 438 kts 103°
2026-05-07 11:58 23.07306 112.47815 21528 ft 433 kts 98°
2026-05-07 11:58 23.07021 112.51057 20898 ft 428 kts 93°
2026-05-07 11:58 23.06958 112.54276 20269 ft 424 kts 90°
2026-05-07 11:59 23.06950 112.57466 19640 ft 419 kts 90°
2026-05-07 11:59 23.06952 112.60616 19009 ft 414 kts 90°
2026-05-07 11:59 23.06950 112.63739 18379 ft 410 kts 90°
2026-05-07 11:59 23.06944 112.66783 17754 ft 406 kts 90°
2026-05-07 12:00 23.06934 112.69840 17125 ft 403 kts 90°
2026-05-07 12:00 23.06922 112.72874 16495 ft 399 kts 90°
2026-05-07 12:00 23.06909 112.75878 15865 ft 396 kts 90°
2026-05-07 12:00 23.06894 112.78861 15233 ft 393 kts 90°
2026-05-07 12:01 23.06885 112.80827 14815 ft 391 kts 90°
2026-05-07 12:01 23.06867 112.83777 13639 ft 392 kts 90°
2026-05-07 12:01 23.06851 112.86748 13005 ft 393 kts 90°
2026-05-07 12:01 23.06827 112.90721 12167 ft 393 kts 90°
2026-05-07 12:02 23.06804 112.93693 11559 ft 393 kts 90°
2026-05-07 12:02 23.06779 112.96642 11173 ft 386 kts 90°
2026-05-07 12:02 23.06762 112.98554 11070 ft 377 kts 90°
2026-05-07 12:02 23.06738 113.01368 11071 ft 371 kts 90°
2026-05-07 12:03 23.06713 113.04170 11068 ft 370 kts 90°
2026-05-07 12:03 23.06495 113.06954 11038 ft 370 kts 105°
2026-05-07 12:03 23.05380 113.09425 10655 ft 364 kts 131°
2026-05-07 12:03 23.03428 113.11093 10175 ft 355 kts 158°
2026-05-07 12:04 23.01059 113.11615 9721 ft 345 kts 185°
2026-05-07 12:04 22.98808 113.10913 9204 ft 335 kts 213°
2026-05-07 12:04 22.97018 113.09352 8637 ft 325 kts 221°
2026-05-07 12:04 22.95106 113.08150 8094 ft 315 kts 195°
2026-05-07 12:05 22.92974 113.08131 7590 ft 306 kts 165°
2026-05-07 12:05 22.91181 113.09278 7107 ft 299 kts 133°
2026-05-07 12:05 22.90234 113.11227 6629 ft 292 kts 100°
2026-05-07 12:05 22.90386 113.13341 6160 ft 284 kts 66°
2026-05-07 12:06 22.91522 113.15036 5853 ft 278 kts 44°
2026-05-07 12:06 22.92717 113.16622 5862 ft 262 kts 60°
2026-05-07 12:06 22.93648 113.18250 5918 ft 250 kts 52°
2026-05-07 12:06 22.94952 113.19456 5866 ft 246 kts 23°
2026-05-07 12:07 22.96579 113.20011 5906 ft 245 kts 12°
2026-05-07 12:07 22.98242 113.20404 5882 ft 245 kts 10°
2026-05-07 12:07 22.99912 113.20781 5881 ft 245 kts 10°
2026-05-07 12:07 23.01582 113.21175 5880 ft 245 kts 11°
2026-05-07 12:08 23.03223 113.21585 5906 ft 238 kts 11°
2026-05-07 12:08 23.04819 113.22000 5953 ft 235 kts 12°
2026-05-07 12:08 23.06406 113.22425 5872 ft 234 kts 12°
2026-05-07 12:08 23.07980 113.22853 5612 ft 231 kts 13°
2026-05-07 12:09 23.09529 113.23281 5302 ft 228 kts 13°
2026-05-07 12:09 23.11057 113.23704 5013 ft 226 kts 13°
2026-05-07 12:09 23.12585 113.24127 4720 ft 226 kts 13°
2026-05-07 12:09 23.14106 113.24546 4436 ft 224 kts 13°
2026-05-07 12:10 23.15612 113.24960 4151 ft 223 kts 13°
2026-05-07 12:10 23.17089 113.25365 3865 ft 221 kts 14°
2026-05-07 12:10 23.18572 113.25770 3587 ft 218 kts 13°
2026-05-07 12:10 23.20038 113.26171 3275 ft 216 kts 14°
2026-05-07 12:11 23.21457 113.26556 2987 ft 204 kts 14°
2026-05-07 12:11 23.22791 113.26920 2727 ft 192 kts 14°
2026-05-07 12:11 23.24045 113.27261 2493 ft 179 kts 15°
2026-05-07 12:11 23.25210 113.27578 2261 ft 166 kts 15°
2026-05-07 12:12 23.26304 113.27876 2084 ft 161 kts 14°
2026-05-07 12:12 23.27390 113.28172 1888 ft 161 kts 14°
2026-05-07 12:12 23.28471 113.28466 1688 ft 160 kts 15°
2026-05-07 12:12 23.29546 113.28758 1483 ft 159 kts 15°
2026-05-07 12:13 23.30618 113.29049 1278 ft 158 kts 14°
2026-05-07 12:13 23.31682 113.29338 1075 ft 157 kts 15°
2026-05-07 12:13 23.32740 113.29626 887 ft 156 kts 14°
2026-05-07 12:13 23.33788 113.29910 701 ft 155 kts 15°
2026-05-07 12:14 23.34834 113.30195 509 ft 155 kts 15°
2026-05-07 12:14 23.35874 113.30466 293 ft 153 kts 14°
2026-05-07 12:14 23.36923 113.30755 119 ft 164 kts 15°
2026-05-07 12:14 23.38111 113.31079 180 ft 192 kts 14°
2026-05-07 12:15 23.39462 113.31443 994 ft 201 kts 14°
2026-05-07 12:15 23.39512 113.31457 1043 ft 201 kts 14°
2026-05-07 12:15 23.40672 113.31778 1963 ft 214 kts 15°
2026-05-07 12:15 23.42165 113.32187 3130 ft 227 kts 14°
2026-05-07 12:16 23.43748 113.32628 4269 ft 246 kts 14°
2026-05-07 12:16 23.45464 113.33279 5111 ft 280 kts 24°
2026-05-07 12:16 23.47309 113.34339 5894 ft 310 kts 31°
2026-05-07 12:16 23.49095 113.35629 6750 ft 301 kts 33°
2026-05-07 12:17 23.50753 113.36904 6812 ft 283 kts 34°
2026-05-07 12:17 23.52362 113.38040 6549 ft 268 kts 28°
2026-05-07 12:17 23.53993 113.38934 6315 ft 254 kts 20°
2026-05-07 12:17 23.55588 113.39558 6111 ft 239 kts 15°
2026-05-07 12:18 23.57167 113.40030 5871 ft 226 kts 13°
2026-05-07 12:18 23.58629 113.40439 5652 ft 215 kts 12°
2026-05-07 12:18 23.60076 113.40840 5289 ft 212 kts 13°
2026-05-07 12:18 23.61521 113.41231 4808 ft 216 kts 13°
2026-05-07 12:19 23.62993 113.41619 4322 ft 219 kts 13°
2026-05-07 12:19 23.64464 113.41994 3837 ft 221 kts 13°
2026-05-07 12:19 23.65903 113.42352 3385 ft 223 kts 13°
2026-05-07 12:19 23.67410 113.42708 3036 ft 217 kts
2026-05-07 12:20 23.68811 113.42555 2951 ft 199 kts 334°
2026-05-07 12:20 23.69846 113.41571 2985 ft 196 kts 297°
2026-05-07 12:20 23.70182 113.40168 2987 ft 193 kts 263°
2026-05-07 12:20 23.69735 113.38787 3045 ft 201 kts 231°
2026-05-07 12:21 23.68634 113.37890 3019 ft 199 kts 198°
2026-05-07 12:21 23.67276 113.37589 3025 ft 200 kts 188°
2026-05-07 12:21 23.65886 113.37357 3001 ft 200 kts 185°
2026-05-07 12:21 23.64502 113.37371 2997 ft 200 kts 176°
2026-05-07 12:22 23.63112 113.37475 2993 ft 200 kts 179°
2026-05-07 12:22 23.61726 113.37389 2991 ft 200 kts 187°
2026-05-07 12:22 23.60356 113.37118 2991 ft 200 kts 192°
2026-05-07 12:22 23.59000 113.36766 2991 ft 200 kts 193°
2026-05-07 12:23 23.57653 113.36396 2992 ft 200 kts 193°
2026-05-07 12:23 23.56306 113.36024 2996 ft 200 kts 193°
2026-05-07 12:23 23.54985 113.35663 2883 ft 189 kts 194°
2026-05-07 12:23 23.53747 113.35325 2650 ft 178 kts 194°
2026-05-07 12:24 23.52578 113.35007 2399 ft 167 kts 193°
2026-05-07 12:24 23.51517 113.34719 2170 ft 151 kts 194°
2026-05-07 12:24 23.50527 113.34451 1990 ft 145 kts 193°
2026-05-07 12:24 23.49548 113.34185 1831 ft 145 kts 193°
2026-05-07 12:25 23.48567 113.33919 1664 ft 145 kts 193°
2026-05-07 12:25 23.47590 113.33654 1481 ft 145 kts 193°
2026-05-07 12:25 23.46610 113.33388 1304 ft 145 kts 193°
2026-05-07 12:25 23.45627 113.33122 1113 ft 145 kts 193°
2026-05-07 12:26 23.44642 113.32854 930 ft 147 kts 194°
2026-05-07 12:26 23.43645 113.32582 752 ft 148 kts 193°
2026-05-07 12:26 23.42644 113.32311 577 ft 148 kts 193°
2026-05-07 12:26 23.41646 113.32040 367 ft 148 kts 193°
2026-05-07 12:27 23.40649 113.31769 170 ft 148 kts 193°
2026-05-07 12:27 23.39676 113.31506 60 ft 125 kts 194°
2026-05-07 12:27 23.38808 113.31276 119 ft 151 kts 193°
2026-05-07 12:27 23.37702 113.30979 829 ft 163 kts 193°
2026-05-07 12:28 23.36590 113.30739 1501 ft 168 kts 178°
2026-05-07 12:28 23.35472 113.31233 1984 ft 185 kts 139°
2026-05-07 12:28 23.34884 113.32497 2579 ft 196 kts 102°
2026-05-07 12:28 23.35116 113.33968 2932 ft 203 kts 69°
2026-05-07 12:29 23.36037 113.35125 2984 ft 207 kts 34°
2026-05-07 12:29 23.37341 113.35792 3000 ft 208 kts 21°
2026-05-07 12:29 23.38720 113.36280 3005 ft 207 kts 17°
2026-05-07 12:29 23.40105 113.36724 2999 ft 207 kts 17°
2026-05-07 12:30 23.41492 113.37159 2996 ft 207 kts 17°
2026-05-07 12:30 23.42875 113.37592 2997 ft 207 kts 17°
2026-05-07 12:30 23.44263 113.38030 2990 ft 207 kts 17°
2026-05-07 12:30 23.45653 113.38465 2999 ft 208 kts 17°
2026-05-07 12:31 23.47041 113.38899 2992 ft 208 kts 17°
2026-05-07 12:31 23.48429 113.39335 2998 ft 208 kts 17°
2026-05-07 12:31 23.49819 113.39771 2992 ft 207 kts 17°
2026-05-07 12:31 23.51206 113.40205 2993 ft 207 kts 17°
2026-05-07 12:32 23.52594 113.40639 2998 ft 208 kts 17°
2026-05-07 12:32 23.53980 113.41073 2992 ft 205 kts 17°
2026-05-07 12:32 23.55315 113.41485 2977 ft 196 kts 15°
2026-05-07 12:32 23.56642 113.41428 2956 ft 194 kts 333°
2026-05-07 12:33 23.57515 113.38960 3002 ft 184 kts 250°
2026-05-07 12:33 23.56817 113.37836 3001 ft 180 kts 218°
2026-05-07 12:33 23.55798 113.37052 3008 ft 179 kts 212°
2026-05-07 12:34 23.54763 113.36297 3004 ft 178 kts 211°
2026-05-07 12:34 23.53710 113.35629 2959 ft 172 kts 205°
2026-05-07 12:34 23.52649 113.35146 2565 ft 166 kts 199°
2026-05-07 12:34 23.51578 113.34769 2239 ft 155 kts 196°
2026-05-07 12:35 23.50579 113.34468 2014 ft 145 kts 194°
2026-05-07 12:35 23.49603 113.34197 1837 ft 145 kts 193°
2026-05-07 12:35 23.48625 113.33931 1673 ft 145 kts 193°
2026-05-07 12:35 23.47647 113.33668 1499 ft 145 kts 193°
2026-05-07 12:36 23.46668 113.33403 1309 ft 145 kts 193°
2026-05-07 12:36 23.45685 113.33136 1121 ft 146 kts 193°
2026-05-07 12:36 23.44701 113.32870 939 ft 146 kts 194°
2026-05-07 12:36 23.43705 113.32599 762 ft 148 kts 193°
2026-05-07 12:37 23.42702 113.32326 583 ft 148 kts 193°
2026-05-07 12:37 23.41700 113.32055 360 ft 148 kts 193°
2026-05-07 12:37 23.40706 113.31780 156 ft 148 kts 193°
2026-05-07 12:37 23.39756 113.31525 64 ft 117 kts 193°
2026-05-07 12:38 23.39226 113.31383 60 ft 40 kts 194°
2026-05-07 12:38 23.38977 113.31314 56 ft 37 kts 194°
2026-05-07 12:38 23.38730 113.31246 59 ft 30 kts 195°
2026-05-07 12:38 23.38592 113.31181 58 ft 22 kts 213°
2026-05-07 12:39 23.38470 113.31070 57 ft 24 kts 223°
2026-05-07 12:39 23.38334 113.30958 59 ft 26 kts 208°
2026-05-07 12:39 23.38157 113.30897 59 ft 27 kts 191°
2026-05-07 12:39 23.38021 113.30793 64 ft 27 kts 273°
2026-05-07 12:40 23.38057 113.30585 58 ft 29 kts 284°
2026-05-07 12:40 23.38109 113.30371 62 ft 24 kts 288°
2026-05-07 12:40 23.38197 113.30272 57 ft 17 kts 324°
2026-05-07 12:40 23.38271 113.30213 60 ft 5 kts 324°
2026-05-07 12:41 23.38297 113.30192 59 ft 0 kts 325°
2026-05-07 12:41 23.38300 113.30190 60 ft 1 kts 325°
2026-05-07 12:41 23.38301 113.30190 61 ft 0 kts 325°